logo tempoitalia

Diretta Meteo Catania-Fontanarossa, Italiasabato 25 maggio ore 00:20

Mappa
Sereno 22 °C Nuvoloso 24 Ore: T.min 14 T.max 26
Ponente Est Km/h 11.1 Punto di rugiada: 15 °C Umidità: 64% Visibilità: 10 Km
Il sole sorge alle: 05:41 Il sole tramonta alle: 20:11
25 Maggio 2024 00:20 tempo osservato: Nuvoloso Nuvoloso 22 64 1017 vento: Nord E 11.1
24 Maggio 2024 23:50 tempo osservato: Poco Nuvoloso Poco Nuvoloso 22 53 1017 vento: Nord NE 11.1
24 Maggio 2024 23:20 tempo osservato: Poco Nuvoloso Poco Nuvoloso 22 49 1017 vento: Nord NE 7.4
24 Maggio 2024 22:50 tempo osservato: Sereno Sereno 22 53 1017 vento: Nord NE 13
24 Maggio 2024 22:20 tempo osservato: Poco Nuvoloso Poco Nuvoloso 23 49 1017 vento: Nord NE 14.8
24 Maggio 2024 21:50 tempo osservato: Nuvoloso Nuvoloso 22 64 1017 vento: Nord E/NE 13
24 Maggio 2024 21:20 tempo osservato: Nuvoloso Nuvoloso 22 68 1017 vento: Nord E 13
24 Maggio 2024 20:50 tempo osservato: Nuvoloso Nuvoloso 22 68 1016 vento: Nord E/NE 13
24 Maggio 2024 20:20 tempo osservato: Nuvoloso Nuvoloso 22 68 1016 vento: Nord NE 14.8
24 Maggio 2024 19:50 tempo osservato: Nuvoloso Nuvoloso 22 73 1017 vento: Nord E 13
24 Maggio 2024 19:20 tempo osservato: Poco Nuvoloso Poco Nuvoloso 23 68 1017 vento: Nord E/NE 14.8
24 Maggio 2024 18:50 tempo osservato: Sereno Sereno 23 64 1017 vento: Nord E 16.7
24 Maggio 2024 18:20 tempo osservato: Sereno Sereno 24 57 1017 vento: Nord E/NE 16.7
24 Maggio 2024 17:50 tempo osservato: Sereno Sereno 24 57 1017 vento: Nord E 18.5
24 Maggio 2024 17:20 tempo osservato: Sereno Sereno 25 47 1017 vento: Nord E 20.3
24 Maggio 2024 16:50 tempo osservato: Sereno Sereno 26 39 1016 vento: Nord E 20.3
24 Maggio 2024 14:50 tempo osservato: Sereno Sereno 26 41 1017 vento: Nord E/NE 20.3
24 Maggio 2024 14:20 tempo osservato: Sereno Sereno 26 44 1018 vento: Nord E/NE 20.3
24 Maggio 2024 13:50 tempo osservato: Sereno Sereno 25 50 1018 vento: Nord E/NE 20.3
24 Maggio 2024 13:20 tempo osservato: Sereno Sereno 25 47 1018 vento: Nord E/NE 18.5
24 Maggio 2024 12:20 tempo osservato: Sereno Sereno 25 38 1018 vento: Nord E/NE 18.5
24 Maggio 2024 11:50 tempo osservato: Sereno Sereno 25 41 1018 vento: Nord E 16.7
24 Maggio 2024 11:20 tempo osservato: Sereno Sereno 25 36 1019 vento: Nord E 14.8
24 Maggio 2024 10:50 tempo osservato: Sereno Sereno 25 38 1018 vento: Nord E 13
24 Maggio 2024 10:20 tempo osservato: Sereno Sereno 25 33 1018 vento: Nord E/NE 11.1
24 Maggio 2024 09:50 tempo osservato: Sereno Sereno 25 36 1018 vento: Nord E 9.3
24 Maggio 2024 09:20 tempo osservato: Sereno Sereno 24 38 1018 vento: Nord E 9.3
24 Maggio 2024 08:50 tempo osservato: Sereno Sereno 24 47 1018 vento: Nord N 3.7
24 Maggio 2024 08:20 tempo osservato: Sereno Sereno 21 60 1018 vento: Nord N 3.7
24 Maggio 2024 07:50 tempo osservato: Sereno Sereno 20 59 1018 vento: Nord N 5.5
24 Maggio 2024 07:20 tempo osservato: Sereno Sereno 17 67 1018 vento: Nord N 5.5
24 Maggio 2024 06:50 tempo osservato: Sereno Sereno 15 76 1018 vento: Nord O/SO 9.3
24 Maggio 2024 06:20 tempo osservato: Sereno Sereno 14 76 1018 vento: Nord O 9.3
24 Maggio 2024 05:50 tempo osservato: Sereno Sereno 14 76 1018 vento: Nord N 7.4
24 Maggio 2024 04:50 tempo osservato: Sereno Sereno 15 72 1017 vento: Nord N 5.5
24 Maggio 2024 04:20 tempo osservato: Sereno Sereno 16 67 1017 vento: Nord N 5.5
24 Maggio 2024 03:50 tempo osservato: Sereno Sereno 15 76 1017 vento: Nord O/SO 9.3
24 Maggio 2024 03:20 tempo osservato: Sereno Sereno 14 82 1018 vento: Nord O/SO 9.3
24 Maggio 2024 02:50 tempo osservato: Sereno Sereno 15 76 1017 vento: Nord SO 7.4
24 Maggio 2024 02:20 tempo osservato: Sereno Sereno 16 77 1017 vento: Nord N 5.5
24 Maggio 2024 01:50 tempo osservato: Sereno Sereno 18 67 1018 vento: Nord N 1.8
24 Maggio 2024 01:20 tempo osservato: Sereno Sereno 19 68 1018 vento: Nord N 1.8
24 Maggio 2024 00:50 tempo osservato: Sereno Sereno 19 68 1018 vento: Nord N 1.8